Orbital Elements at Epoch 2459000.5 (2020-May-31.0) TDB
Reference: JPL 16 (heliocentric ecliptic J2000)
Element | Value | Uncertainty (1-sigma) | Units |
e | .09639495572032498 | 6.5728e-08 | |
a | 2.270391608365224 | 2.5908e-08 | au |
q | 2.051537309809061 | 1.5247e-07 | au |
i | 7.870641882482648 | 7.5378e-06 | deg |
node | 235.9203816361479 | 3.7897e-05 | deg |
peri | 3.909058755383396 | 5.6927e-05 | deg |
M | 122.1008498826952 | 4.97e-05 | deg |
tp | 2458576.695296487241 (2019-Apr-03.19529649) | 0.00016659 | TDB |
period | 1249.53833991467 3.42 | 2.1388e-05 5.856e-08 | d yr |
n | .288106405782302 | 4.9314e-09 | deg/d |
Q | 2.489245906921388 | 2.8405e-08 | au |
|
| | Orbit Determination Parameters
Additional Information
|